[ ตารางข้อมูล ] [ Min-Max ] [ วันนี้4 ] [ วันนี้2 ] [ เทียบ3วัน A ] [ เทียบ4วัน B ]   

วันนี้2   [ ◀ ช่วงเก่ากว่า ] [ ช่วงที่ 301 ] [ ช่วงใหม่กว่า ▶ ] [ ล่าสุด ]    [ 3 ชั่วโมง ] [ 6 ชั่วโมง ] [ 12 ชั่วโมง ] [ 24 ชั่วโมง ]   วันนี้2

อุณภูมิตู้ Knockdown4529  ราย 3 ชั่วโมง  ที่วัดได้ ในช่วงวันเวลา 01/04/2026 (02:31) ถึง 01/04/2026 (05:31) 
ความชื้นในตู้ Knockdown4529  ราย 3 ชั่วโมง  ที่วัดได้ ในช่วงวันเวลา 01/04/2026 (02:31) ถึง 01/04/2026 (05:31) 

 
DS18B20SHTC3 
IDDate d/m/Y & Timedata1
สูง
data2
ต่ำ
data3
นอก
temp
pcb
hum
pcb
Time
 7717  01/04/2026 05:30:51  28.0  27.9  25.4  27.7  73.4  05:30 
 7716  01/04/2026 05:26:09  28.1  28.0  25.4  27.7  73.4  05:26 
 7715  01/04/2026 05:21:28  28.1  28.0  25.5  27.8  73.4  05:21 
 7714  01/04/2026 05:16:47  28.1  28.0  25.3  27.8  73.4  05:16 
 7713  01/04/2026 05:12:05  28.1  28.1  25.2  27.7  73.3  05:12 
 7712  01/04/2026 05:07:24  28.1  28.1  25.2  27.9  73.4  05:07 
 7711  01/04/2026 05:02:42  28.2  28.1  25.5  27.9  73.4  05:02 
 7710  01/04/2026 04:58:00  28.2  28.1  25.7  27.9  73.3  04:58 
 7709  01/04/2026 04:53:18  28.2  28.2  25.7  27.9  73.4  04:53 
 7708  01/04/2026 04:48:37  28.2  28.2  25.5  28.0  73.3  04:48 
 7707  01/04/2026 04:43:52  28.3  28.2  25.6  28.1  73.4  04:43 
 7706  01/04/2026 04:39:10  28.3  28.2  25.8  28.2  73.5  04:39 
 7705  01/04/2026 04:34:28  28.4  28.3  25.6  28.1  73.4  04:34 
 7704  01/04/2026 04:29:46  28.4  28.3  25.5  28.3  73.2  04:29 
 7703  01/04/2026 04:25:04  28.4  28.4  25.7  28.2  73.4  04:25 
 7702  01/04/2026 04:20:22  28.4  28.4  25.8  28.4  73.3  04:20 
 7701  01/04/2026 04:15:41  28.5  28.4  25.6  28.2  73.2  04:15 
 7700  01/04/2026 04:10:59  28.5  28.4  25.4  28.4  73.2  04:10 
 7699  01/04/2026 04:06:17  28.6  28.5  25.3  28.3  73.1  04:06 
 7698  01/04/2026 04:01:35  28.6  28.5  25.4  28.5  73.3  04:01 
 7697  01/04/2026 03:56:54  28.6  28.6  25.5  28.4  73.1  03:56 
 7696  01/04/2026 03:52:12  28.6  28.6  25.4  28.5  73.1  03:52 
 7695  01/04/2026 03:47:31  28.7  28.6  25.4  28.4  73.0  03:47 
 7694  01/04/2026 03:42:46  28.7  28.6  25.7  28.4  73.0  03:42 

Data every 5 minute.


ใช้เวลาประมวลผล 0.00181 วินาที